FENGYUN 1C DEB

Satellite information

Favourite Embed

Satellite Type and Status

DEBRISIN ORBIT

Key statistics

Satellite FENGYUN 1C DEB at a glance.

Uptime

9616

Days in orbit

Revolutions

≈ 14.4

Per day

Orbit

SSO

Sun Synchronous Orbit

Inclination

99.0

Latest

Satellite identification and parameters

Extended collection of information and parameters for FENGYUN 1C DEB.

Object identification

Identified? True

Debris? True

Object name: FENGYUN 1C DEB

International designator: 1999-025MA

Object number (NORAD): 30001

Object ID (CCSDS): 30001

Country: PEOPLES REPUBLIC OF CHINA (PRC)

Current information (Y/N): Y

RCS size: SMALL

Orbital parameters

Period: 100.246 minutes

Inclination: 98.9644 deg

SMA: 7148.322 km

Apoapsis: 797.517 km

Periapsis: 742.856 km

RAAN: 318.0567 deg

Eccentricy: 0.00382338

Argument of periapsis: 30.4668 deg

Mean anomaly: 23.9784 deg

Mean motion: 14.36470276 rev/day

Mean motion (dot): 0.0000876 rev/day2

B* drag term: 0.0029744003 1/REarth

Two-line elements (TLE)

Creation date: Sept. 4, 2025, 10:13 a.m.

Reference frame: TEME

Reference center: EARTH

Epoch: Sept. 4, 2025, 3:47 a.m. UTC

TLE line 0: 0 FENGYUN 1C DEB

TLE line 1: 1 30001U 99025MA 25247.15810797 .00008760 00000-0 29744-2 0 9996

TLE line 2: 2 30001 98.9644 318.0567 0038234 30.4668 23.9784 14.36470276960012

Live tracking on map

Real-time ground track for satellite FENGYUN 1C DEB.

In-orbit conjunctions

A list of the most updated potential collisions computed for object FENGYUN 1C DEB.

Target Orbit TCA Probability of collision Miss distance Type
COSMOS 2251 DEB LEO 2025-03-28 18:20:55 0.0002397983 227.0 (m) DEBRIS
CZ-4C R/B SSO 2025-01-03 09:15:08 0.0001745085 339.0 (m) ROCKET BODY
COSMOS 372 LEO 2024-11-07 23:59:02 0.0001020956 122.0 (m) PAYLOAD

Associated space launch

Chinese polar orbiting meteorological satellite

FENGYUN 1C DEB was lifted into orbit during the mission ‘Long March 4B | Feng Yun 1C’, on board a Long March 4B space rocket.

The launch took place on May 10, 1999, 1:33 a.m. from Launch Complex 7.

For more information about the launch, click the button.

Launch to space Long March 4B | Feng Yun 1C
Long March 4B | Feng Yun 1C

Agency: N/A

Status: Launch Successful

Launch date: May 10, 1999, 1:33 a.m. UTC

Rocket: Long March 4B

Launch pad: Launch Complex 7

Location: Taiyuan Satellite Launch Center, People's Republic of China

...

Latest news about this satellite

There are no fresh news available about this satellite. Check back as we update our databases every day.


Newsletter sign-up

Weekly statistics, charts and insights to help you stay on top of the space industry.